Find Starlink 30563

NORAD ID: 58042 Int'l Des: 2023-156 Owner: SPXS Country: US Constellation: starlink operational
LEOCIRCULAR

現在のビュー

3D地球を読み込み中...

About Starlink 30563

Starlink 30563 (NORAD 58042) is a starlink constellation satellite (v2 mini) launched Oct 9, 2023 by SPXS of US. It operates in LEO, CIRCULAR orbit with a mass of 730.00 kg.

次回通過

Passes for default location (London). Set your location on the main map for personalized predictions.

高度履歴

Loading altitude history...

軌道要素

1 58042U 23156Q 26252.13905485 -.00000027 00000-0 10309-4 0 9995
2 58042 53.1578 302.5119 0000440 64.0472 296.0575 15.34387837164455
Epoch: Sep 9, 2026 • Age: 7 hours

現在のステータス

高度 463.4 km
遠地点 / 近地点 N/A
速度 7.64 km/s
衛星直下点 22.57°N, 39.06°W
打ち上げ日 Oct 9, 2023
運用期間 2.9 years
タイプ internet

技術仕様

分類 Payload
質量 730.00 kg
乾燥質量 700.00 kg
総質量 730.00 kg
長さ 0.30 m
直径 4.10 m
スパン 29.00 m
形状 Box + pan
製造者 SPXS
バスタイプ Starlink V2M
フェーズステータス In Orbit
所有者/国 SPXS/US

Most Searched